[Iaude] MPEC P43: 2020 PS [a=2.47,e=0.59,i=6.2,H=24.1]

mpec at marsden.cfa.harvard.edu mpec at marsden.cfa.harvard.edu
Tue Aug 11 18:17:53 EDT 2020


M.P.E.C. 2020-P43                               Issued 2020 August 11, 22:16 UT

     The Minor Planet Electronic Circulars contain information on unusual
         minor planets and routine data on comets.  They are published
    on behalf of Division F of the International Astronomical Union by the
          Minor Planet Center, Smithsonian Astrophysical Observatory,
                          Cambridge, MA 02138, U.S.A.

             Prepared using the Tamkin Foundation Computer Network

                              MPC at CFA.HARVARD.EDU
            URL https://www.minorplanetcenter.net/    ISSN 1523-6714

                                    2020 PS                                     


Observations:
     K20P00S* C2020 08 10.15345 15 46 19.61 +26 44 13.2          20.3 GVEP043G96
     K20P00S  C2020 08 10.16374 15 46 22.47 +26 45 11.4          20.5 GVEP043G96
     K20P00S  C2020 08 10.16888 15 46 23.94 +26 45 40.4          20.0 GVEP043G96
     K20P00S  C2020 08 10.24233 15 46 45.65 +26 52 29.7                VEP043I52
     K20P00S  C2020 08 10.24310 15 46 45.91 +26 52 34.1          19.9 GVEP043I52
     K20P00S  C2020 08 10.24387 15 46 46.14 +26 52 38.1          19.9 GVEP043I52
     K20P00S  C2020 08 10.24464 15 46 46.38 +26 52 42.6          20.8 GVEP043I52
     K20P00S  C2020 08 10.26289815 46 58.406+26 55 39.54         20.18wUEP043F52
     K20P00S  C2020 08 10.27523115 47 01.817+26 56 50.77         20.59wUEP043F52
     K20P00S  C2020 08 10.28760515 47 05.268+26 58 01.51         20.67wUEP043F52
     K20P00S  C2020 08 10.29997315 47 08.797+26 59 12.66         20.16wUEP043F52
     K20P00S KC2020 08 10.84595415 50 36.64 +27 55 26.4          20.4 GVEP043L01
     K20P00S KC2020 08 10.84768615 50 37.25 +27 55 37.4          20.5 GVEP043L01
     K20P00S KC2020 08 10.84941315 50 37.88 +27 55 48.5          20.3 GVEP043L01
     K20P00S KC2020 08 10.85113415 50 38.49 +27 55 59.4          20.4 GVEP043L01
     K20P00S KC2020 08 10.85264415 50 39.02 +27 56 09.1          20.2 GVEP043L01
     K20P00S HC2020 08 10.87118 15 50 46.43 +27 58 10.6          20.5 GVEP043204
     K20P00S HC2020 08 10.89098 15 50 53.62 +28 00 17.6                VEP043204
     K20P00S  C2020 08 11.13585 15 52 40.85 +28 29 34.3          20.2 GVEP043I52
     K20P00S  C2020 08 11.13662 15 52 41.12 +28 29 39.3          20.4 GVEP043I52
     K20P00S  C2020 08 11.13739 15 52 41.37 +28 29 45.1          21.8 GVEP043I52
     K20P00S KC2020 08 11.82645 15 58 09.15 +29 56 26.0          19.9 GVEP043104
     K20P00S KC2020 08 11.83158 15 58 11.49 +29 57 07.7          20.2 GVEP043104
     K20P00S  C2020 08 11.83790 15 58 15.03 +29 57 32.6          20.2 VVEP043033
     K20P00S  C2020 08 11.83923 15 58 15.66 +29 57 43.5          20.2 VVEP043033
     K20P00S  C2020 08 11.84056 15 58 16.27 +29 57 54.0          20.7 VVEP043033
     K20P00S KC2020 08 11.84182 15 58 16.18 +29 58 28.1          19.5 GVEP043104
     K20P00S  C2020 08 11.84201 15 58 16.97 +29 58 05.5          20.6 VVEP043033
     K20P00S KC2020 08 11.88635615 58 40.06 +30 04 07.8          19.9 GVEP043J95
     K20P00S KC2020 08 11.89608015 58 44.78 +30 05 25.4          20.0 GVEP043J95
     K20P00S KC2020 08 11.90085315 58 47.01 +30 06 03.8          19.6 GVEP043J95

Observer details:
033 Karl Schwarzschild Observatory, Tautenburg.  Observers S. Melnikov, U.
    Laux, B. Stecklum.  Measurer B. Stecklum.  1.34-m f/3 Schmidt + CCD.
104 San Marcello Pistoiese.  Observers P. Bacci, M. Maestripieri, S. Mangano.
    Measurers P. Bacci, L. Tesi, G. Fagioli.  0.60-m reflector + CCD.
204 Schiaparelli Observatory.  Observer L. Buzzi.  0.84-m f/3.5 reflector +
    CCD.
F52 Pan-STARRS 2, Haleakala.  Observers J. Bulger, T. Dukes, T. Lowe, A.
    Schultz, M. Willman.  Measurers K. Chambers, S. Chastel, T. de Boer, L.
    Denneau, J. Fairlamb, H. Flewelling, M. Huber, C.-C. Lin, E. Magnier, Y.
    Ramanjooloo, R. Wainscoat, R. Weryk.  1.8-m Ritchey-Chretien + CCD.
G96 Mt. Lemmon Survey.  Observer T. A. Pruyne.  Measurers E. J. Christensen,
    G. A. Farneth, D. C. Fuls, A. R. Gibbs, A. D. Grauer, H. Groeller, R. A.
    Kowalski, S. M. Larson, G. J. Leonard, T. A. Pruyne, D. Rankin, R. L.
    Seaman, F. C. Shelly, K. W. Wierzchos.  1.5-m reflector + 10K CCD.
I52 Steward Observatory, Mt. Lemmon Station.  Observer H. Groeller.  Measurers
    E. J. Christensen, G. A. Farneth, D. C. Fuls, A. R. Gibbs, A. D. Grauer,
    H. Groeller, R. A. Kowalski, S. M. Larson, G. J. Leonard, T. A. Pruyne, D.
    Rankin, R. L. Seaman, F. C. Shelly, K. W. Wierzchos.  1.0-m reflector +
    CCD.
J95 Great Shefford.  Observer P. Birtwhistle.  0.41-m f/6.3 Schmidt-Cassegrain
    + CCD.
L01 Visnjan Observatory, Tican.  Observers F. Hrzenjak, K. Korlevic.  Measurer
    K. Korlevic.  1.0-m f/2.9 reflector + CCD.

Orbital elements:
2020 PS                                                  Earth MOID = 0.0140 AU
Epoch 2020 May 31.0 TT = JDT 2459000.5                  Veres
M 341.59489              (2000.0)            P               Q
n   0.25446844     Peri.  163.45293     +0.73367579     +0.67780829
a   2.4663049      Node   153.68019     -0.63503143     +0.70904498
e   0.5890568      Incl.    6.20378     -0.24177452     +0.19450227
P   3.87           H   24.1           G   0.15           U   7
Residuals in seconds of arc
200810 G96  0.1+  0.1-    200810 L01  0.2-  0.1+    200811 104  0.3+  0.5+
200810 G96  0.1-  0.1+    200810 L01  0.2-  0.0     200811 033  0.3-  0.3-
200810 G96  0.2+  0.3+    200810 L01  0.0   0.0     200811 033  0.2-  0.1+
200810 I52  0.3-  0.2-    200810 L01  0.0   0.1-    200811 033  0.4-  0.0
200810 I52  0.1-  0.1-    200810 L01  0.1-  0.1-    200811 104  0.1+  0.3-
200810 I52  0.2-  0.3-    200810 204  0.4+  0.4+    200811 033  0.2-  0.1-
200810 I52  0.2-  0.1-    200810 204  0.3+  0.4+    200811 J95  0.0   0.2+
200810 F52  0.3+  0.2+    200811 I52  0.1+  0.1-    200811 J95  0.6+  0.1-
200810 F52  0.2+  0.2+    200811 I52  0.0   0.5-    200811 J95  0.5-  0.0
200810 F52  0.1-  0.3-    200811 I52  0.3-  0.0
200810 F52  0.1+  0.1-    200811 104  0.4+  0.5-

Ephemeris:
2020 PS                  a,e,i = 2.47, 0.59, 6                   q = 1.0135
Date    TT    R. A. (2000) Decl.     Delta      r    Elong.  Phase     V
2020 07 12    15 12 00.4 +13 52 42   0.1819  1.0873   108.2    62.6    22.8
...
2020 07 27    15 15 32.0 +17 02 52   0.1151  1.0331    95.6    78.0    22.2
...
2020 08 04    15 25 37.6 +20 29 03   0.07710 1.0181    90.4    85.2    21.6
...
2020 08 10    15 45 32.7 +26 29 52   0.04830 1.0137    88.6    88.6    20.7
2020 08 11    15 51 46.8 +28 13 59   0.04359 1.0135    88.8    88.7    20.5
2020 08 12    15 59 47.8 +30 21 30   0.03895 1.0136    89.2    88.6    20.2
...
2020 08 18    19 56 06.0 +55 58 43   0.01681 1.0173   106.9    72.2    17.8
...
2020 08 26    02 01 43.8 +08 39 19   0.03900 1.0315   121.5    56.6    19.2
...
2020 09 10    02 31 26.0 -05 05 08   0.1129  1.0842   130.8    44.7    21.3

M. P. C. Staff               (C) Copyright 2020 MPC           M.P.E.C. 2020-P43




More information about the Iaude mailing list